Regional Weather Roundup
Issued by NWS

Home | Current Version | Previous Version | Text Only | Print | Product List | Glossary On
Versions: 1 2 3 4 5 6 7 8 9 10 11 12 13 14 15 16 17 18 19 20 21 22 23 24 25 26 27 28 29 30 31 32 33 34 35 36 37 38 39 40 41 42 43 44 45 46 47 48 49 50
000
ASUS46 KSEW 011210
RWRWA

WASHINGTON REGIONAL WEATHER ROUNDUP
NATIONAL WEATHER SERVICE SEATTLE WA
500 AM PDT WED JUL 01 2015

NOTE:"FAIR" INDICATES FEW OR NO CLOUDS BELOW 12,000 FEET WITH NO
SIGNIFICANT WEATHER AND/OR OBSTRUCTIONS TO VISIBILITY.

WAZ505-507>509-011300-
SEATTLE, TACOMA, EVERETT, AND VICINITY

CITY           SKY/WX    TMP DP  RH WIND       PRES   REMARKS
EVERETT        CLEAR     62  52  69 N7        30.06F
6HR MIN TEMP:  59; 6HR MAX TEMP:  63;

BOEING FIELD   CLEAR     65  54  67 NW3       30.04S
6HR MIN TEMP:  65; 6HR MAX TEMP:  74;

RENTON         CLEAR     65  53  65 N8        30.04S
6HR MIN TEMP:  65; 6HR MAX TEMP:  73;

SEATAC AIRPORT CLEAR     65  53  65 N12       30.05S
6HR MIN TEMP:  63; 6HR MAX TEMP:  73;

JBLM-MCCHORD   CLEAR     56  54  91 S7        30.05R
6HR MIN TEMP:  56; 6HR MAX TEMP:  72; 6HR PCP: TRACE;

PUYALLUP       FAIR      55  55 100 CALM      30.06R
BREMERTON      CLEAR     54  48  82 CALM      30.08F
6HR MIN TEMP:  54; 6HR MAX TEMP:  68;

JBLM-FT LEWIS  CLEAR     58  53  86 S5        30.05R
6HR MIN TEMP:  58; 6HR MAX TEMP:  70;

TACOMA NARROWS CLEAR     60  52  74 N3        30.05F
6HR MIN TEMP:  59; 6HR MAX TEMP:  70;

$$

WAZ001-503-506-510-514-515-011300-
NORTH INTERIOR

CITY           SKY/WX    TMP DP  RH WIND       PRES   REMARKS
BELLINGHAM     CLEAR     58  55  90 CALM      30.06S
6HR MIN TEMP:  58; 6HR MAX TEMP:  65;

FRIDAY HARBOR  CLEAR     51  49  92 CALM      30.07S
6HR MIN TEMP:  50; 6HR MAX TEMP:  54;

EASTSOUND      CLEAR     63  55  77 N6        30.06R
PORT ANGELES   CLEAR     52  50  93 CALM      30.07R
6HR MIN TEMP:  51; 6HR MAX TEMP:  56;

PORT TOWNSEND  FAIR      52  50  93 CALM      30.07S
NAS WHIDBEY    PTCLDY    55  52  89 N3        30.10S
6HR MIN TEMP:  54; 6HR MAX TEMP:  61;

ARLINGTON      CLEAR     55  48  76 CALM      30.07S
6HR MIN TEMP:  54; 6HR MAX TEMP:  61;

BURLINGTON     CLEAR     63  55  77 NW13      30.07R
$$

WAZ020-022-039-040-504-511-512-011300-
SOUTHWEST INTERIOR

CITY           SKY/WX    TMP DP  RH WIND       PRES   REMARKS
SHELTON        CLEAR     54  51  90 W3        30.03F
6HR MIN TEMP:  53; 6HR MAX TEMP:  64;

OLYMPIA        CLEAR     53  50  89 S3        30.06R
6HR MIN TEMP:  53; 6HR MAX TEMP:  67;

CHEHALIS       FAIR      54  54 100 CALM      30.05S FOG
KELSO          CLEAR     57  52  82 CALM      30.07F
6HR MIN TEMP:  57; 6HR MAX TEMP:  66;

VANCOUVER      CLEAR     63  51  65 NW3       30.01S
6HR MIN TEMP:  62; 6HR MAX TEMP:  74;

SCAPPOOSE, OR  CLEAR     60  49  66 CALM      30.00S
6HR MIN TEMP:  60; 6HR MAX TEMP:  72;

PORTLAND, OR   CLEAR     64  53  67 CALM      30.01S
6HR MIN TEMP:  64; 6HR MAX TEMP:  74;

$$

WAZ021-516-517-011300-
WASHINGTON COAST

CITY           SKY/WX    TMP DP  RH WIND       PRES   REMARKS
FORKS          FOG       50  50 100 CALM      30.04F VSB 1/4
6HR MIN TEMP:  50; 6HR MAX TEMP:  55;

HOQUIAM        CLEAR     53  51  93 NE6       30.06S FOG
6HR MIN TEMP:  50; 6HR MAX TEMP:  58;

ASTORIA, OR    MOCLDY    55  54  96 SW6       30.06S
6HR MIN TEMP:  54; 6HR MAX TEMP:  59;

$$

WAZ019-023-024-040-518-519-011300-
CASCADE MOUNTAINS AND COLUMBIA GORGE

CITY           SKY/WX    TMP DP  RH WIND       PRES   REMARKS
TROUTDALE, OR  CLEAR     62  53  72 CALM      30.00S
6HR MIN TEMP:  61; 6HR MAX TEMP:  75;

THE DALLES, OR CLEAR     71  58  63 NW12      29.93S
6HR MIN TEMP:  71; 6HR MAX TEMP:  84;

$$

WAZ026-027-041>044-520-521-011300-
EAST SLOPES

CITY           SKY/WX    TMP DP  RH WIND       PRES   REMARKS
OMAK           CLEAR     72  50  45 N12       30.01R
6HR MIN TEMP:  71; 6HR MAX TEMP:  85;

WENATCHEE      CLEAR     74  50  42 NW9       29.99S
6HR MIN TEMP:  73; 6HR MAX TEMP:  84;

ELLENSBURG     CLEAR     69  50  50 NW16      30.01R
6HR MIN TEMP:  69; 6HR MAX TEMP:  79;

YAKIMA         CLEAR     72  51  47 W8G18     29.98R
6HR MIN TEMP:  72; 6HR MAX TEMP:  85;

$$

WAZ028-034-035-011300-
COLUMBIA BASIN

CITY           SKY/WX    TMP DP  RH WIND       PRES   REMARKS
EPHRATA        CLEAR     74  50  42 NW6       29.95S
6HR MIN TEMP:  74; 6HR MAX TEMP:  86;

MOSES LAKE     CLEAR     73  49  42 NW9       29.95S
6HR MIN TEMP:  73; 6HR MAX TEMP:  84;

PASCO          CLEAR     65  59  81 CALM      29.94R
6HR MIN TEMP:  65; 6HR MAX TEMP:  84;

HERMISTON, OR  CLEAR     64  56  75 S3        29.94S
6HR MIN TEMP:  63; 6HR MAX TEMP:  82;

$$

WAZ036>038-011300-
NORTHEAST WASHINGTON

CITY           SKY/WX    TMP DP  RH WIND       PRES   REMARKS
SPOKANE GEIGER PTCLDY    67  47  48 S7        29.98S
6HR MIN TEMP:  67; 6HR MAX TEMP:  81;

SPOKANE FELTS  CLEAR     63  52  67 NE3       29.97S
6HR MIN TEMP:  63; 6HR MAX TEMP:  76;

FAIRCHILD AFB  CLEAR     63  46  54 S2        29.99R
6HR MIN TEMP:  63; 6HR MAX TEMP:  74;

COEURDALENE,ID CLEAR     61  52  72 NE8       29.98S
6HR MIN TEMP:  61; 6HR MAX TEMP:  73;

DEER PARK      PTCLDY    60  52  74 MISG      29.99R
6HR MIN TEMP:  56; 6HR MAX TEMP:  67;

$$

WAZ029>033-011300-
SOUTHEAST WASHINGTON

CITY           SKY/WX    TMP DP  RH WIND       PRES   REMARKS
PULLMAN        CLEAR     55  48  77 CALM      30.03R
6HR MIN TEMP:  53; 6HR MAX TEMP:  65;

LEWISTON, ID   CLEAR     71  47  42 S3        29.96R
6HR MIN TEMP:  70; 6HR MAX TEMP:  86;

WALLA WALLA    CLEAR     74  50  42 SE3       29.96S
6HR MIN TEMP:  71; 6HR MAX TEMP:  81;

PENDLETON, OR  CLEAR     67  47  48 SE8       29.99R
6HR MIN TEMP:  65; 6HR MAX TEMP:  79;

$$



USA.gov is the U.S. government's official web portal to all federal, state and local government web resources and services.